Regional Weather Roundup
Issued by NWS Midland/Odessa, TX

Skip options and go directly to product.
Home | Oldest Version | Next Version | Current Version | All | Text Only | Save Text | Print | Product List | Glossary On

Skip product version selection by date and time.   
006
ASUS44 KMAF 071901
RWRMAF
MIDLAND AREA WEATHER ROUNDUP
NATIONAL WEATHER SERVICE MIDLAND TX
100 PM CST SUN FEB 07 2016

...IN SOUTHWEST TEXAS AND SOUTHEAST NEW MEXICO...

CITY           SKY/WX    TMP DP  RH WIND       PRES   REMARKS
ALPINE         SUNNY     69   3   7 N10G16    30.29F
ANDREWS        FAIR      64  19  17 N16       30.19F
ARTESIA        SUNNY     61  18  18 NE9       30.21F
BIG SPRING     SUNNY     61  20  20 NW15G21   30.17F
CARLSBAD       SUNNY     64  15  15 NE8       30.19F
DRYDEN           N/A     73   9   8 SW14G22   30.15F
FORT STOCKTON  SUNNY     69   9   9 NW16G22   30.18F
GUAD PASS      SUNNY     57  10  15 SW29G35   30.25F
HOBBS          SUNNY     64  16  15 N14G20    30.21F
MARFA          SUNNY     66   0   7 W17       30.26F
MIDLAND AIRPK  SUNNY     65  20  17 N13       30.18F
MIDLAND INTL   SUNNY     67  21  17 N16       30.16F
ODESSA         SUNNY     67  19  16 N15       30.17F
PECOS          SUNNY     68  14  12 W12       30.20F
PRESIDIO       FAIR      59  12  15 SW7       30.25F
SEMINOLE       SUNNY     62  20  20 N9G20     30.20F
SNYDER           N/A     62  19  18 N14G21    30.14F
WINK           SUNNY     70  16  12 NW16G23   30.16F
$$
...OTHER STATIONS IN TEXAS...

CITY           SKY/WX    TMP DP  RH WIND       PRES   REMARKS
ABILENE        SUNNY     63  23  21 NW13      30.12F
AMARILLO       SUNNY     56  22  26 N17G28    30.24F
AUSTIN         MOSUNNY   61  32  33 SW15G22   30.20F
BROWNSVILLE    SUNNY     70  38  31 S13G20    30.24F
CORPUS CHRISTI MOSUNNY   70  36  28 SW13      30.22F
DALLAS FTW     MOSUNNY   60  31  33 S14G20    30.13F
DEL RIO        SUNNY     63  18  17 SE6       30.19F
EL PASO        MOSUNNY   59   9  13 N10       30.29F
HOUSTON INT    MOSUNNY   61  36  39 W6        30.25F
LUBBOCK        MOSUNNY   65  18  16 NE20G28   30.17F
SAN ANGELO     SUNNY     69  16  13 SW14G21   30.12F
SAN ANTONIO    MOSUNNY   60  32  34 S12       30.23F
WACO           SUNNY     61  36  39 S15       30.16F
WICHITA FALLS  NOT AVBL
$$
...OTHER LOCATIONS IN NEW MEXICO...

CITY           SKY/WX    TMP DP  RH WIND       PRES   REMARKS
ALAMAGORDO     SUNNY     59  10  14 N13       30.27F
ALBUQUERQUE    MOSUNNY   49  15  25 NW10      30.37F
CANNON AFB     SUNNY     57  19  22 E13G20    30.24F
CLOVIS         SUNNY     57  21  24 NE15      30.25F
HOLLOMAN AFB   SUNNY     59  12  16 NW16      30.27F
ROSWELL        SUNNY     65  16  15 N18       30.20F
RUIDOSO          N/A     54  10  17 NW14G28   30.32F
SANTA FE       CLOUDY    43  15  32 NW15      30.35F WCI  36
TRUTH OR CONSE SUNNY     53  13  20 N7        30.32F
TUCUMCARI      CLOUDY    56  18  22 E6        30.26F
$$

USA.gov is the U.S. government's official web portal to all federal, state and local government web resources and services.